Weather History for Langdon, ND

Change the Weather History Date:

Monday, January 7, 2013

  Actual Average (KDVL) Record (KDVL)
Temperature  
Mean Temperature 17 °F -  
Max Temperature 26 °F 10 °F 43 °F (1990)
Min Temperature 6 °F -6 °F -34 °F (1966)
Degree Days  
Heating Degree Days 48    
Moisture  
Dew Point 19 °F    
Average Humidity 89    
Maximum Humidity 100    
Minimum Humidity 80    
Precipitation  
Precipitation 0.00 in - - ()
Sea Level Pressure  
Sea Level Pressure 29.65 in    
Wind  
Wind Speed 20 mph (WSW)    
Max Wind Speed 34 mph    
Max Gust Speed 39 mph    
Visibility 9 miles    
Events      
Averages and records for this station are not official NWS values.
T = Trace of Precipitation, MM = Missing Value Source: NWS Daily Summary

Daily Weather History Graph

Daily Weather History Graph

Search for Another Location

Airport:

Trip Planner

Search our weather history database for the weather conditions in past years. The results will help you decide how hot, cold, wet, or windy it might be!

Date:

Astronomy

Jan. 07, 2013 Rise Set
Actual Time 8:25 AM CST 4:55 PM CST
Civil Twilight 7:48 AM CST 5:31 PM CST
Nautical Twilight 7:09 AM CST 6:11 PM CST
Astronomical Twilight 6:31 AM CST 6:49 PM CST
Moon 3:45 AM CST (1/7) 1:11 PM CST (1/7)
Length of Visible Light 9h 42m
Length of Day
8h 29m
Waning Crescent, 22% of the Moon is Illuminated
Jan 7
Waning Crescent
Jan 11
New
Jan 18
First Quarter
Jan 26
Full
Feb 3
Last Quarter

Hourly Weather History & Observations

Time (CST) Temp. Windchill Dew Point Humidity Pressure Visibility Wind Dir Wind Speed Gust Speed Precip Events Conditions
12:15 AM 23.0 °F 9.2 °F 19.4 °F 86% 29.56 in 10.0 mi WSW 17.3 mph - N/A   Clear
12:35 AM 24.8 °F 10.7 °F 19.4 °F 80% 29.56 in 10.0 mi WSW 19.6 mph - N/A   Clear
12:55 AM 24.8 °F 10.3 °F 21.2 °F 86% 29.55 in 10.0 mi WSW 20.7 mph - N/A   Clear
1:15 AM 24.8 °F 10.3 °F 23.0 °F 93% 29.54 in 10.0 mi WSW 20.7 mph - N/A   Clear
1:35 AM 24.8 °F 10.7 °F 23.0 °F 93% 29.54 in 10.0 mi WSW 19.6 mph - N/A   Clear
1:55 AM 24.8 °F 11.9 °F 21.2 °F 86% 29.54 in 10.0 mi SW 16.1 mph - N/A   Clear
2:15 AM 23.0 °F 10.1 °F 19.4 °F 86% 29.55 in 10.0 mi WSW 15.0 mph - N/A   Clear
2:35 AM 24.8 °F 10.7 °F 21.2 °F 86% 29.55 in 10.0 mi WSW 19.6 mph - N/A   Clear
2:55 AM 24.8 °F 11.5 °F 21.2 °F 86% 29.56 in 10.0 mi West 17.3 mph - N/A   Clear
3:15 AM 24.8 °F 11.9 °F 21.2 °F 86% 29.57 in 10.0 mi WSW 16.1 mph - N/A   Clear
3:35 AM 24.8 °F 10.3 °F 21.2 °F 86% 29.55 in 10.0 mi WSW 20.7 mph 24.2 mph N/A   Clear
3:55 AM 24.8 °F 11.1 °F 21.2 °F 86% 29.56 in 10.0 mi West 18.4 mph - N/A   Clear
4:15 AM 24.8 °F 10.0 °F 21.2 °F 86% 29.55 in 10.0 mi West 21.9 mph - N/A   Clear
4:35 AM 24.8 °F 9.6 °F 21.2 °F 86% 29.55 in 10.0 mi WSW 23.0 mph - N/A   Scattered Clouds
4:55 AM 24.8 °F 9.3 °F 21.2 °F 86% 29.55 in 10.0 mi West 24.2 mph 29.9 mph N/A   Partly Cloudy
5:15 AM 24.8 °F 9.0 °F 21.2 °F 86% 29.54 in 10.0 mi West 25.3 mph 31.1 mph N/A   Partly Cloudy
5:35 AM 24.8 °F 8.4 °F 23.0 °F 93% 29.54 in 10.0 mi West 27.6 mph 35.7 mph N/A   Mostly Cloudy
6:15 AM 24.8 °F 8.4 °F 23.0 °F 93% 29.55 in 10.0 mi West 27.6 mph 36.8 mph N/A   Clear
6:35 AM 24.8 °F 9.0 °F 23.0 °F 93% 29.55 in 10.0 mi West 25.3 mph 28.8 mph N/A   Clear
6:55 AM 24.8 °F 8.4 °F 23.0 °F 93% 29.55 in 10.0 mi West 27.6 mph - N/A   Clear
7:15 AM 26.6 °F 9.3 °F 24.8 °F 93% 29.55 in 10.0 mi West 34.5 mph 39.1 mph N/A   Clear
7:35 AM 24.8 °F 8.1 °F 24.8 °F 100% 29.56 in 5.0 mi West 28.8 mph 36.8 mph N/A   Clear
7:55 AM 24.8 °F 7.9 °F 23.0 °F 93% 29.56 in 5.0 mi West 29.9 mph 36.8 mph N/A   Clear
8:15 AM 24.8 °F 8.1 °F 23.0 °F 93% 29.56 in 1.8 mi West 28.8 mph 36.8 mph N/A   Clear
8:35 AM 24.8 °F 7.3 °F 23.0 °F 93% 29.57 in 3.0 mi West 32.2 mph 39.1 mph N/A   Clear
8:55 AM 24.8 °F 8.1 °F 23.0 °F 93% 29.59 in 1.8 mi West 28.8 mph - N/A   Clear
9:15 AM 24.8 °F 9.0 °F 21.2 °F 86% 29.60 in 3.0 mi West 25.3 mph 29.9 mph N/A   Clear
9:35 AM 24.8 °F 8.4 °F 21.2 °F 86% 29.61 in 5.0 mi West 27.6 mph - N/A   Mostly Cloudy
9:55 AM 23.0 °F 6.9 °F 21.2 °F 93% 29.63 in 5.0 mi West 24.2 mph - N/A   Overcast
10:15 AM 23.0 °F 6.9 °F 21.2 °F 93% 29.64 in 4.0 mi West 24.2 mph 29.9 mph N/A   Mostly Cloudy
10:35 AM 24.8 °F 10.0 °F 21.2 °F 86% 29.64 in 8.0 mi West 21.9 mph 27.6 mph N/A   Mostly Cloudy
10:55 AM 24.8 °F 10.0 °F 21.2 °F 86% 29.65 in 10.0 mi West 21.9 mph - N/A   Overcast
11:15 AM 24.8 °F 9.6 °F 21.2 °F 86% 29.66 in 8.0 mi West 23.0 mph - N/A   Overcast
11:35 AM 24.8 °F 9.0 °F 21.2 °F 86% 29.66 in 6.0 mi West 25.3 mph 29.9 mph N/A   Mostly Cloudy
11:55 AM 24.8 °F 9.6 °F 21.2 °F 86% 29.66 in 7.0 mi West 23.0 mph - N/A   Clear
12:15 PM 24.8 °F 9.3 °F 21.2 °F 86% 29.66 in 7.0 mi West 24.2 mph - N/A   Clear
12:35 PM 24.8 °F 9.6 °F 21.2 °F 86% 29.66 in 10.0 mi West 23.0 mph - N/A   Clear
1:15 PM 24.8 °F 10.7 °F 23.0 °F 93% 29.68 in 10.0 mi West 19.6 mph - N/A   Overcast
1:35 PM 26.6 °F 12.0 °F 23.0 °F 86% 29.68 in 10.0 mi WNW 23.0 mph 28.8 mph N/A   Overcast
1:55 PM 26.6 °F 12.0 °F 23.0 °F 86% 29.68 in 8.0 mi WNW 23.0 mph 32.2 mph N/A   Mostly Cloudy
2:15 PM 26.6 °F 12.7 °F 23.0 °F 86% 29.69 in 10.0 mi West 20.7 mph - N/A   Mostly Cloudy
2:55 PM 26.6 °F 13.8 °F 23.0 °F 86% 29.70 in 10.0 mi West 17.3 mph - N/A   Overcast
3:15 PM 24.8 °F 11.9 °F 19.4 °F 80% 29.71 in 10.0 mi West 16.1 mph - N/A   Mostly Cloudy
3:35 PM 24.8 °F 11.9 °F 21.2 °F 86% 29.72 in 10.0 mi West 16.1 mph - N/A   Overcast
3:55 PM 24.8 °F 12.4 °F 19.4 °F 80% 29.72 in 10.0 mi West 15.0 mph - N/A   Overcast
4:15 PM 23.0 °F 9.6 °F 19.4 °F 86% 29.72 in 10.0 mi West 16.1 mph - N/A   Mostly Cloudy
4:35 PM 21.2 °F 7.3 °F 17.6 °F 86% 29.73 in 10.0 mi West 16.1 mph - N/A   Mostly Cloudy
5:15 PM 19.4 °F 6.6 °F 17.6 °F 93% 29.73 in 10.0 mi West 12.7 mph - N/A   Overcast
5:35 PM 21.2 °F 6.8 °F 17.6 °F 86% 29.74 in 10.0 mi West 17.3 mph - N/A   Mostly Cloudy
5:55 PM 19.4 °F 3.6 °F 15.8 °F 86% 29.74 in 10.0 mi West 19.6 mph - N/A   Partly Cloudy
6:15 PM 17.6 °F 2.2 °F 15.8 °F 93% 29.75 in 10.0 mi West 17.3 mph - N/A   Clear
6:35 PM 17.6 °F 2.7 °F 14.0 °F 86% 29.76 in 10.0 mi West 16.1 mph - N/A   Clear
6:55 PM 17.6 °F 2.2 °F 14.0 °F 86% 29.76 in 10.0 mi West 17.3 mph - N/A   Clear
7:15 PM 15.8 °F 1.4 °F 14.0 °F 93% 29.76 in 10.0 mi WSW 13.8 mph - N/A   Clear
7:35 PM 14.0 °F -0.2 °F 12.2 °F 93% 29.77 in 10.0 mi WSW 12.7 mph - N/A   Clear
7:55 PM 12.2 °F -3.1 °F 10.4 °F 92% 29.78 in 10.0 mi WSW 13.8 mph - N/A   Clear
8:15 PM 12.2 °F -3.7 °F 10.4 °F 92% 29.77 in 10.0 mi WSW 15.0 mph - N/A   Clear
8:35 PM 14.0 °F -2.0 °F 12.2 °F 93% 29.77 in 10.0 mi WSW 16.1 mph - N/A   Clear
8:55 PM 14.0 °F -1.4 °F 12.2 °F 93% 29.77 in 10.0 mi WSW 15.0 mph - N/A   Clear
9:35 PM 10.4 °F -5.4 °F 8.6 °F 92% 29.77 in 10.0 mi SW 13.8 mph - N/A   Clear
9:55 PM 10.4 °F -4.8 °F 8.6 °F 92% 29.77 in 10.0 mi SW 12.7 mph - N/A   Clear
10:15 PM 8.6 °F -7.0 °F 8.6 °F 100% 29.77 in 10.0 mi SW 12.7 mph - N/A   Clear
10:35 PM 8.6 °F -7.7 °F 8.6 °F 100% 29.77 in 10.0 mi SW 13.8 mph - N/A   Clear
10:55 PM 8.6 °F -8.3 °F 8.6 °F 100% 29.77 in 10.0 mi SW 15.0 mph - N/A   Clear
11:15 PM 10.4 °F -6.0 °F 8.6 °F 92% 29.76 in 10.0 mi SW 15.0 mph - N/A   Clear
11:35 PM 8.6 °F -7.0 °F 6.8 °F 92% 29.76 in 10.0 mi SW 12.7 mph - N/A   Clear
11:55 PM 6.8 °F -8.6 °F 5.0 °F 92% 29.75 in 10.0 mi SSW 11.5 mph - N/A   Clear